[[{"header":{"parameterUnit":"m.s-1","parameterCategory":1,"la1":30.2991,"la2":30.254,"lo1":-89.0895,"lo2":-89.0444,"dy":0.0017,"dx":0.0017,"nx":28,"ny":28,"refTime":"2025-04-14T09:00:00:Z","depth":0,"parameterNumber":2,"parameterNumberName":"U-component_of_WINDS"},"data":[0,0,0,0,0,0,0,0,0,0,0,0,0,0,0,0,0,0,0,0,0,0,0,0,0,0,0,0,0,0,0,0,0,0,0,0,0,0,0,0,0,0,0,0,0,0,0,0,0,0,0,0,0,0,0,0,0,0,0.2186,0.2187,0,0.2269,0.227,0.2271,0.2291,0.2291,0.229,0.229,0.2378,0.2381,0.2384,0,0,0,0,0,0,0,0,0,0,0,0,0,0.2049,0.2051,0.2186,0.2187,0.2188,0.2269,0.227,0.2271,0.2292,0.2291,0.229,0.229,0.2377,0.2381,0.2384,0,0,0,0,0,0,0,0,0,0,0,0,0,0.2118,0.2052,0.2185,0.2208,0.221,0.2269,0.227,0.2272,0.2292,0.2291,0.229,0.2289,0.2376,0.238,0.2385,0.2428,0,0,0.2398,0.24,0,0,0,0,0,0,0,0,0.2114,0.2123,0.2203,0.2206,0.2209,0.2269,0.2254,0.2324,0.2292,0.2261,0.229,0.2289,0.2343,0.235,0.2367,0.2432,0.2436,0.2398,0.2401,0.2403,0.2404,0,0,0,0,0,0,0,0.2109,0.2119,0.2219,0.2204,0.2208,0.2215,0.2224,0.2268,0.2306,0.2264,0.2265,0.2275,0.2344,0.2363,0.237,0.2437,0.2398,0.2402,0.2405,0.2406,0.2547,0.2548,0,0,0,0,0,0,0.21,0.2115,0.2216,0.2221,0.2159,0.2218,0.2228,0.2251,0.2305,0.2313,0.2275,0.2275,0.2356,0.2365,0.2373,0.243,0.2403,0.2407,0.2409,0.2546,0.2547,0.2548,0,0,0,0,0,0,0.2097,0.2109,0.2213,0.2169,0.2183,0.2221,0.2247,0.2253,0.2272,0.2314,0.2321,0.2287,0.2356,0.2367,0.2415,0.2434,0.2409,0.2413,0.2544,0.2546,0.2548,0.2544,0,0,0,0,0,0,0.2093,0.2107,0.2123,0.2169,0.2185,0.2252,0.2248,0.2255,0.2279,0.228,0.2327,0.2334,0.2356,0.2409,0.2419,0.2439,0.2416,0.2543,0.2545,0.2547,0.2543,0.2545,0.2548,0,0,0,0,0,0.2088,0.2118,0.2124,0.2136,0.2205,0.2253,0.2262,0.2286,0.228,0.2297,0.2325,0.2333,0.2429,0.2413,0.2426,0.2447,0.2542,0.2545,0.2547,0.2541,0.2545,0.2547,0,0,0,0,0,0,0.2074,0.2125,0.2131,0.2177,0.221,0.2256,0.2278,0.2288,0.2324,0.2324,0.2352,0.2363,0.241,0.2433,0.2414,0.2494,0.2486,0.2491,0.2477,0.2481,0.2483,0.2478,0.242,0,0,0,0,0,0.2076,0.2109,0.2152,0.2189,0.2205,0.2239,0.2261,0.2276,0.2312,0.2327,0.2358,0.2394,0.2433,0.2458,0.2496,0.2546,0.2559,0.2567,0.2569,0.2571,0.2576,0.2608,0.2614,0.2557,0.2557,0.2557,0,0,0.208,0.2112,0.2132,0.2187,0.2214,0.2251,0.2251,0.2288,0.2316,0.2333,0.2381,0.2405,0.2448,0.2498,0.2522,0.2519,0.2595,0.2574,0.2576,0.258,0.2611,0.2617,0.2621,0.2558,0.2558,0.2558,0,0,0.2108,0.2134,0.2169,0.2198,0.224,0.2262,0.2271,0.2316,0.2333,0.2381,0.2396,0.243,0.2496,0.2527,0.2551,0.2594,0.2604,0.2605,0.2619,0.265,0.2654,0.2659,0.2677,0.2683,0.2609,0.2609,0.2609,0,0.2109,0.2163,0.2186,0.2224,0.2249,0.2266,0.2303,0.233,0.2383,0.2401,0.2396,0.2481,0.2511,0.257,0.2581,0.2599,0.2612,0.26,0.2651,0.2656,0.266,0.2678,0.2685,0.2609,0.2609,0.2609,0.2609,0,0.2163,0.2201,0.2224,0.2275,0.2303,0.234,0.2371,0.2397,0.2411,0.2435,0.2486,0.2522,0.257,0.2585,0.2598,0.2647,0.2645,0.2645,0.2638,0.2665,0.2683,0.269,0.261,0.261,0.2609,0.2609,0,0,0.2183,0.2248,0.2257,0.2282,0.2331,0.2361,0.2401,0.2447,0.247,0.2506,0.2542,0.2599,0.2601,0.2628,0.2646,0.2673,0.2709,0.2671,0.2672,0.2679,0.277,0.2771,0.2778,0.2715,0.2717,0.2718,0.2768,0,0.2219,0.2289,0.2313,0.2372,0.2409,0.2427,0.2462,0.2497,0.2521,0.2558,0.2585,0.2625,0.2623,0.2641,0.2668,0.2698,0.2728,0.2695,0.2752,0.2754,0.2743,0.2787,0.2787,0.2832,0.2774,0.2775,0.2776,0,0.2269,0.2307,0.237,0.2418,0.2434,0.2465,0.2511,0.2545,0.2587,0.2603,0.2635,0.2651,0.2696,0.2685,0.2749,0.2727,0.2752,0.277,0.2773,0.2781,0.2768,0.2799,0.2847,0.2855,0.2787,0.2786,0.2785,0,0.2281,0.2348,0.2395,0.2415,0.2472,0.2494,0.2518,0.2559,0.2587,0.2627,0.2646,0.2691,0.2717,0.2753,0.2783,0.2771,0.2846,0.2836,0.2863,0.2862,0.2879,0.2878,0.2935,0.2891,0.2891,0.289,0.289,0,0.232,0.2358,0.2402,0.2431,0.2476,0.2504,0.2548,0.2574,0.2611,0.2648,0.2666,0.27,0.2735,0.2775,0.2799,0.2851,0.2861,0.2878,0.2884,0.2878,0.2876,0.2896,0.2894,0.2892,0.2892,0.2892,0.2891,0,0.2341,0.2371,0.2424,0.2474,0.2487,0.2519,0.2562,0.2593,0.2618,0.2665,0.2677,0.2718,0.2767,0.2799,0.286,0.2876,0.2934,0.2938,0.292,0.2923,0.295,0.2948,0.3023,0.3036,0.2981,0.2981,0.2981,0,0.2364,0.2394,0.2448,0.2474,0.2498,0.2539,0.2568,0.2598,0.2627,0.2679,0.2704,0.2754,0.2795,0.2872,0.2908,0.2957,0.2964,0.2987,0.2971,0.2965,0.2968,0.2967,0.2972,0.299,0.299,0.2991,0.2991,0,0.2404,0.2418,0.2457,0.2504,0.2537,0.2575,0.2613,0.2634,0.2671,0.2704,0.2753,0.2785,0.2849,0.29,0.2952,0.298,0.2994,0.2996,0.3005,0.3,0.299,0.2999,0.293,0.2994,0.2994,0.2994,0.2993,0.2993,0.2429,0.2458,0.2501,0.2546,0.2578,0.2614,0.2646,0.2677,0.2718,0.2773,0.2788,0.2841,0.2886,0.2958,0.2987,0.3031,0.3029,0.3041,0.3045,0.3048,0.305,0.2981,0.304,0.304,0.304,0.304,0.304,0,0.2472,0.2501,0.2542,0.2595,0.2632,0.264,0.2684,0.2714,0.276,0.2801,0.2842,0.2901,0.2951,0.2992,0.3044,0.3071,0.3079,0.3084,0.3084,0.3091,0.3047,0.3035,0.3077,0.3077,0.3077,0.3077,0.3077,0.3077,0.2498,0.2549,0.2569,0.2638,0.2668,0.2719,0.2744,0.2779,0.2812,0.2877,0.2918,0.2945,0.2987,0.3043,0.309,0.3102,0.3122,0.3126,0.3139,0.3098,0.3094,0.309,0.3079,0.3129,0.3129,0.318,0.318,0.3181]},{"header":{"parameterUnit":"m.s-1","parameterCategory":1,"la1":30.2991,"la2":30.254,"lo1":-89.0895,"lo2":-89.0444,"dy":0.0017,"dx":0.0017,"nx":28,"ny":28,"refTime":"2025-04-14T09:00:00:Z","depth":0,"parameterNumber":3,"parameterNumberName":"V-component_of_WINDS"},"data":[0,0,0,0,0,0,0,0,0,0,0,0,0,0,0,0,0,0,0,0,0,0,0,0,0,0,0,0,0,0,0,0,0,0,0,0,0,0,0,0,0,0,0,0,0,0,0,0,0,0,0,0,0,0,0,0,0,0,-4.504,-4.504,0,-4.5029,-4.5028,-4.5028,-4.5071,-4.5073,-4.5074,-4.5075,-4.5055,-4.5053,-4.5051,0,0,0,0,0,0,0,0,0,0,0,0,0,-4.5094,-4.5093,-4.504,-4.504,-4.504,-4.5029,-4.5028,-4.5028,-4.5071,-4.5073,-4.5074,-4.5076,-4.5055,-4.5053,-4.5051,0,0,0,0,0,0,0,0,0,0,0,0,0,-4.5075,-4.5092,-4.504,-4.506,-4.5062,-4.5029,-4.5028,-4.5028,-4.5071,-4.5073,-4.5075,-4.5077,-4.5056,-4.5053,-4.5051,-4.4995,0,0,-4.5043,-4.5041,0,0,0,0,0,0,0,0,-4.5076,-4.5073,-4.5058,-4.5059,-4.5061,-4.5054,-4.504,-4.5017,-4.507,-4.5067,-4.5075,-4.5077,-4.5052,-4.505,-4.5043,-4.4994,-4.4993,-4.5042,-4.5041,-4.504,-4.5039,0,0,0,0,0,0,0,-4.5077,-4.5074,-4.5035,-4.5057,-4.5059,-4.5068,-4.5067,-4.5036,-4.5048,-4.5068,-4.5071,-4.5069,-4.5053,-4.5046,-4.5043,-4.4993,-4.5042,-4.504,-4.5038,-4.5037,-4.4897,-4.4895,0,0,0,0,0,0,-4.5077,-4.5074,-4.5036,-4.5035,-4.5074,-4.5065,-4.5065,-4.5054,-4.5049,-4.505,-4.5067,-4.5071,-4.5049,-4.5046,-4.5042,-4.4976,-4.504,-4.5037,-4.5036,-4.4899,-4.4897,-4.4894,0,0,0,0,0,0,-4.5078,-4.5073,-4.5036,-4.5056,-4.5052,-4.5062,-4.505,-4.5052,-4.5045,-4.5049,-4.5051,-4.5058,-4.5051,-4.5046,-4.5007,-4.4976,-4.5036,-4.5034,-4.4902,-4.4899,-4.4896,-4.4843,0,0,0,0,0,0,-4.5079,-4.5073,-4.5053,-4.5055,-4.5051,-4.5003,-4.5048,-4.5051,-4.5041,-4.5046,-4.504,-4.5041,-4.5052,-4.5011,-4.5004,-4.4973,-4.5031,-4.4905,-4.49,-4.4897,-4.4848,-4.4839,-4.4831,0,0,0,0,0,-4.5081,-4.5037,-4.5052,-4.5047,-4.5026,-4.5001,-4.4998,-4.5014,-4.5039,-4.5018,-4.5021,-4.5041,-4.4981,-4.5006,-4.5,-4.4967,-4.4906,-4.4902,-4.4897,-4.4852,-4.4841,-4.4831,0,0,0,0,0,0,-4.5028,-4.5038,-4.5054,-4.501,-4.5005,-4.5008,-4.4982,-4.5002,-4.4987,-4.4991,-4.5009,-4.5007,-4.4965,-4.4963,-4.499,-4.4913,-4.4948,-4.4941,-4.4916,-4.4905,-4.4897,-4.4897,-4.5029,0,0,0,0,0,-4.5012,-4.4993,-4.5002,-4.4962,-4.4959,-4.4971,-4.4961,-4.4974,-4.4967,-4.4964,-4.4964,-4.4956,-4.4935,-4.492,-4.4902,-4.4849,-4.4847,-4.4824,-4.4815,-4.4808,-4.4801,-4.4773,-4.4762,-4.4879,-4.4879,-4.4879,0,0,-4.4977,-4.498,-4.4966,-4.4951,-4.4949,-4.4926,-4.4969,-4.4943,-4.4926,-4.496,-4.4923,-4.4923,-4.4914,-4.4868,-4.4848,-4.4865,-4.4769,-4.4802,-4.4797,-4.4793,-4.4767,-4.4755,-4.4746,-4.4875,-4.4876,-4.4877,0,0,-4.4902,-4.4903,-4.487,-4.4868,-4.4864,-4.4873,-4.4866,-4.4867,-4.4869,-4.4834,-4.4859,-4.4838,-4.4802,-4.4795,-4.4786,-4.4711,-4.4729,-4.4704,-4.4659,-4.4631,-4.4621,-4.4613,-4.4585,-4.4574,-4.4698,-4.4698,-4.4698,0,-4.4858,-4.4827,-4.485,-4.4823,-4.4815,-4.4849,-4.4814,-4.481,-4.4799,-4.4792,-4.4813,-4.4769,-4.4766,-4.4718,-4.47,-4.4693,-4.4683,-4.4703,-4.4622,-4.4614,-4.4606,-4.4579,-4.4568,-4.4695,-4.4695,-4.4696,-4.4696,0,-4.4773,-4.4751,-4.4725,-4.4717,-4.4707,-4.4676,-4.4692,-4.4678,-4.4693,-4.4699,-4.4662,-4.466,-4.4641,-4.4632,-4.4644,-4.4586,-4.4596,-4.4619,-4.4654,-4.4592,-4.4566,-4.4556,-4.4691,-4.4692,-4.4693,-4.4693,0,0,-4.466,-4.4668,-4.4657,-4.4654,-4.4655,-4.4637,-4.4608,-4.4593,-4.458,-4.4573,-4.4547,-4.4517,-4.4539,-4.4529,-4.4542,-4.4518,-4.4457,-4.4543,-4.4543,-4.4525,-4.439,-4.4371,-4.4359,-4.447,-4.4469,-4.4467,-4.439,0,-4.4584,-4.4537,-4.4558,-4.4507,-4.4487,-4.452,-4.4494,-4.449,-4.4496,-4.4478,-4.4484,-4.4462,-4.4493,-4.4488,-4.4466,-4.4469,-4.4429,-4.4475,-4.4443,-4.4442,-4.4442,-4.4346,-4.4325,-4.4252,-4.4381,-4.4379,-4.4378,0,-4.4489,-4.4481,-4.4429,-4.4434,-4.4426,-4.4403,-4.4391,-4.4375,-4.4371,-4.4377,-4.4368,-4.4386,-4.4356,-4.4394,-4.4351,-4.4382,-4.4371,-4.437,-4.4368,-4.4363,-4.4404,-4.4335,-4.423,-4.4218,-4.4363,-4.4364,-4.4365,0,-4.4409,-4.4385,-4.4351,-4.4348,-4.4353,-4.4336,-4.4337,-4.4336,-4.4326,-4.4315,-4.4308,-4.4293,-4.4284,-4.4271,-4.4284,-4.4311,-4.4239,-4.4278,-4.424,-4.424,-4.4221,-4.4221,-4.4109,-4.4218,-4.4218,-4.4219,-4.4219,0,-4.4321,-4.4287,-4.4316,-4.4294,-4.4257,-4.4281,-4.4243,-4.4248,-4.4247,-4.4225,-4.4254,-4.4232,-4.4253,-4.4233,-4.4243,-4.4206,-4.4202,-4.4204,-4.4206,-4.4199,-4.4199,-4.419,-4.4194,-4.4216,-4.4216,-4.4217,-4.4218,0,-4.4224,-4.4242,-4.4207,-4.4216,-4.4218,-4.419,-4.4197,-4.4177,-4.4186,-4.4159,-4.4154,-4.4167,-4.4145,-4.4159,-4.4136,-4.4143,-4.4093,-4.4104,-4.4095,-4.4097,-4.4058,-4.406,-4.3933,-4.3917,-4.4039,-4.4038,-4.4037,0,-4.4165,-4.414,-4.4148,-4.4137,-4.4138,-4.4119,-4.411,-4.4133,-4.4122,-4.4118,-4.4097,-4.4079,-4.4065,-4.4029,-4.4035,-4.4017,-4.4026,-4.3983,-4.4023,-4.4017,-4.4022,-4.4023,-4.4019,-4.3974,-4.3972,-4.3971,-4.397,0,-4.4057,-4.4068,-4.4055,-4.4046,-4.4035,-4.4028,-4.4022,-4.4011,-4.4035,-4.4021,-4.4001,-4.3991,-4.3969,-4.395,-4.3936,-4.3934,-4.3954,-4.3958,-4.3948,-4.3939,-4.3934,-4.3934,-4.407,-4.396,-4.3961,-4.3962,-4.3962,-4.3963,-4.3976,-4.3955,-4.3958,-4.3943,-4.3943,-4.3938,-4.3919,-4.3928,-4.3913,-4.3899,-4.3914,-4.3889,-4.3886,-4.387,-4.3867,-4.3846,-4.3863,-4.3849,-4.3845,-4.384,-4.3834,-4.3941,-4.3844,-4.3844,-4.3844,-4.3845,-4.3845,0,-4.3867,-4.3872,-4.3858,-4.3852,-4.384,-4.3865,-4.3861,-4.3848,-4.3827,-4.3825,-4.3812,-4.3789,-4.3771,-4.3777,-4.376,-4.3743,-4.3752,-4.3737,-4.3737,-4.3736,-4.3821,-4.383,-4.373,-4.373,-4.373,-4.373,-4.373,-4.373,-4.381,-4.3776,-4.3788,-4.3755,-4.3759,-4.3737,-4.3733,-4.3728,-4.3726,-4.37,-4.3686,-4.3692,-4.3693,-4.3677,-4.3661,-4.3663,-4.3654,-4.3636,-4.3641,-4.3719,-4.373,-4.3741,-4.3749,-4.3634,-4.3634,-4.3558,-4.3557,-4.3556]}]]